Location: Seattle
(47.6060°N, 122.3310°W)
Time: 10:52:14
(UTC-07:00)

ISS - Visible Passes

Search period start: 23 October 2014 00:00
Search period end: 02 November 2014 00:00
Orbit: 413 x 416 km, 51.6° (Epoch: 23 October)

Date Brightness Start Highest point End Pass type
(mag) Time Alt. Az. Time Alt. Az. Time Alt. Az.
23 Oct -3.3 18:57:25 10° WNW 19:00:47 86° NNE 19:03:48 12° ESE visible
23 Oct -0.8 20:34:40 10° W 20:36:40 19° SW 20:36:40 19° SW visible
24 Oct -1.6 19:45:11 10° W 19:48:09 30° SW 19:49:51 19° S visible
25 Oct -2.3 18:55:50 10° WNW 18:59:04 46° SSW 19:02:17 10° SE visible
26 Oct -0.3 19:44:21 10° WSW 19:46:05 14° SW 19:47:50 10° SSW visible
27 Oct -0.7 18:54:25 10° W 18:57:02 21° SW 18:59:38 10° S visible
